Regional Weather Roundup
Issued by NWS Sterling, VA

Home | Current Version | Previous Version | Text Only | Print | Product List | Glossary Off
Versions: 1 2 3 4 5 6 7 8 9 10 11 12 13 14 15 16 17 18 19 20 21 22 23 24 25 26 27 28 29 30 31 32 33 34 35 36 37 38 39 40 41 42 43 44 45 46 47 48 49 50

881
ASUS41 KLWX 181210
RWRLWX

REGIONAL WEATHER ROUNDUP
NATIONAL WEATHER SERVICE BALTIMORE MD/WASHINGTON DC
700 AM EST SAT NOV 18 2017

Note: "FAIR" indicates few or no clouds below 12,000 feet
with no significant weather and/or obstructions to visibility.
 TC=TEMPERATURE CELSIUS

 * =Non NWS site. Station does not report precipitation (e.g. rain,
    snow, etc.), thunder, or fog.

DCZ001-MDZ009-015-VAZ040>042-051-053>054-181300-
WASHINGTON METRO

CITY           SKY/WX    TMP DP  RH WIND       PRES   REMARKS
WASHINGTON NAT MOCLDY    41  34  76 S13       29.94F
DULLES         MOCLDY    40  32  73 S9        29.89F
ANDREWS AFB    CLOUDY    38  31  78 S9        29.93F
FT BELVOIR     PTCLDY    34  31  89 SE3       29.94F
COLLEGE PARK*  CLOUDY    31  29  91 CALM      29.94F
LEESBURG*      PTCLDY    37  32  81 S7        29.89F
MANASSAS*      PTCLDY    42  33  70 S12G20    29.90F
GAITHERSBURG*  CLEAR     39  31  72 SE10      29.90F

$$

MDZ006>007-011-014-181300-
BALTIMORE METRO

CITY           SKY/WX    TMP DP  RH WIND       PRES   REMARKS
BWI AIRPORT    MOCLDY    37  31  78 S3        29.93F
MD SCIENCE CTR   N/A     40  31  70 MISG      29.94F
MARTIN STATE   MOCLDY    43  36  75 S5        29.96F
FORT MEADE*    PTCLDY    28  28 100 CALM      29.97F

$$

MDZ012-015-019>023-181300-
MARYLAND EASTERN SHORE

CITY           SKY/WX    TMP DP  RH WIND       PRES   REMARKS
OCEAN CITY     CLEAR     41  37  86 SW6       30.04F
SALISBURY      CLEAR     36  33  89 SE3       30.02F
CAMBRIDGE*     CLEAR     34  32  93 SE6       29.99F
EASTON*        PTCLDY    37  34  87 S7        30.01F

$$

MDZ017>025-181300-
SOUTHERN MARYLAND

CITY           SKY/WX    TMP DP  RH WIND       PRES   REMARKS
PATUXENT RIVER NOT AVBL
ST INIGOES     CLEAR     44  35  70 S13       29.99F
LEONARDTOWN*   PTCLDY    41  32  70 S7        29.99F

$$

MDZ003>005-181300-
NORTH CENTRAL MARYLAND

CITY           SKY/WX    TMP DP  RH WIND       PRES   REMARKS
FREDERICK*     PTCLDY    32  32 100 CALM      29.91F
HAGERSTOWN APT MOCLDY    36  29  75 CALM      29.83F
WESTMINSTER*   PTCLDY    39  32  75 S8        29.88F

$$

MDZ501>502-181300-
WESTERN MARYLAND

CITY           SKY/WX    TMP DP  RH WIND       PRES   REMARKS
OAKLAND*       CLOUDY    45  21  39 S13       29.71F
CUMBERLAND*    CLOUDY    32  32 100 CALM      29.85F

$$

VAZ025>031-181300-
SHENANDOAH VALLEY

CITY           SKY/WX    TMP DP  RH WIND       PRES   REMARKS
WINCHESTER*    CLOUDY    37  28  70 SW5       29.83F
FRONT ROYAL*   PTCLDY    43  28  56 MISG      29.82F
LURAY*         PTCLDY    43  30  61 S3        29.84F
NEW MARKET*    PTCLDY    46  29  51 SW7       29.83F
STAUNTON*      CLOUDY    35  30  81 W3        29.88F
WAYNESBORO*    CLOUDY    40  30  68 CALM      29.86F

$$

WVZ021-048>050-054>055-181300-
EASTERN WEST VIRGINIA PANHANDLE

CITY           SKY/WX    TMP DP  RH WIND       PRES   REMARKS
MARTINSBURG    CLOUDY    32  27  81 CALM      29.83F
PETERSBURG*    MOCLDY    34  32  93 CALM      29.79F

$$

VAZ036>039-050-181300-
CENTRAL FOOTHILLS

CITY           SKY/WX    TMP DP  RH WIND       PRES   REMARKS
CHARLOTTESVILL PTCLDY    40  31  70 S9        29.89F
CULPEPER*      CLOUDY    40  31  69 S9        29.90F
ORANGE*        PTCLDY    34  30  86 S6        29.91F
GORDONSVILLE*  MOCLDY    34  32  90 SW5       29.92F
WARRENTON*     NOT AVBL

$$

VAZ055>057-181300-
NORTH AND CENTRAL PIEDMONT

CITY           SKY/WX    TMP DP  RH WIND       PRES   REMARKS
FREDERICKSBRG* MOCLDY    37  33  87 S6        29.95F
STAFFORD*      PTCLDY    32  32 100 CALM      29.99F

$$

NCZ024-NYZ072-PAZ021-071-VAZ022-071-181300-
OTHER REGIONAL OBSERVATIONS

CITY           SKY/WX    TMP DP  RH WIND       PRES   REMARKS
NEW YORK CITY  CLOUDY    37  22  54 CALM      30.00F
PHILADELPHIA   MOCLDY    38  32  79 S6        29.98F
PITTSBURGH     LGT RAIN  40  39  97 SE6       29.69R
ROANOKE        PTCLDY    38  30  73 CALM      29.94F
RICHMOND       MOCLDY    55  34  45 S7        30.00F
RALEIGH        CLOUDY    41  37  86 SW6       30.04F

$$

ANZ530>537-181300-
MARINE OBSERVATIONS

STATION/POSITION TIME  TEMP    WIND        PRES
                       AIR SEA DIR/SP/G
                 (UTC) (F)     (DEG/KT/KT) (MB)
THOMAS PT LIGHT  1200   47 53  200/ 25/ 28   N/A

$$





USA.gov is the U.S. government's official web portal to all federal, state and local government web resources and services.